Powrót do katalogu

BUFENG YI HAO B XING

AktywnyŁącznośćVLEO
NORAD 44314·PAYLOAD·🇨🇳 China
Ta nazwa satelity nie została jeszcze potwierdzona przez oficjalne źródła.

Wystrzelony Jun 5, 2019 z Yellow Sea Launch Area

Loading…

Następne Przeloty (najbliższe 24 godziny)

TLE

ŚwieżeSource: Space-Track

Epoka: Sep 14, 2026, 07:11 UTC

1 44314U 19032E   26257.29954153  .00014817  00000-0  35578-3 0  9993
2 44314  44.9997 204.0117 0009096 135.7064 224.4553 15.41258027401819

Śledź BUFENG YI HAO B XING w czasie rzeczywistym z AllMySat

Download on the App Store